Location: Coll�gien
(48.8357°N, 2.6736°E)
Time: 01:24:24
(UTC+00:00)

Daily predictions for brighter satellites

Satellite Brightness Start Highest point End
(mag) Time Altitude Azimuth Time Altitude Azimuth Time Altitude Azimuth
STARLINK-1227 4.1 00:00:07 10° WNW 00:03:05 41° N 00:06:04 10° E
ATLAS CENTAUR R/B 3.6 00:02:06 10° NNW 00:03:48 20° NNE 00:06:18 10° ENE
STARLINK-1226 4.1 00:00:58 10° WNW 00:03:58 42° N 00:06:57 10° E
Lacrosse 5 4.1 00:02:38 10° WSW 00:03:12 11° WSW 00:03:12 11° WSW
STARLINK-1225 4.2 00:00:46 10° W 00:04:51 57° NNW 00:08:57 10° ENE
STARLINK-1215 4.1 00:01:54 10° WNW 00:04:54 42° N 00:07:55 10° E
Cosmos 292 Rocket 4.0 00:03:39 35° SW 00:05:35 65° WNW 00:10:26 10° NNE
STARLINK-1217 4.1 00:03:40 10° WNW 00:06:41 43° NNE 00:09:40 10° E
STARLINK-1229 4.1 00:04:36 10° WNW 00:07:36 43° NNE 00:10:37 10° E
STARLINK-1270 4.1 00:05:27 10° WNW 00:08:28 43° NNE 00:11:29 10° E
STARLINK-1104 3.9 00:04:32 10° WNW 00:08:12 47° SW 00:08:12 47° SW
STARLINK-1230 4.3 00:05:45 10° W 00:09:50 55° NNW 00:13:56 10° ENE
S3M 4.4 00:04:06 10° NNW 00:09:57 49° W 00:12:36 31° SW
STARLINK-1189 4.0 00:07:18 10° WNW 00:10:19 44° NNE 00:13:20 10° E
Cosmos 1655 Rocket 4.3 00:07:30 30° SW 00:10:34 60° WNW 00:16:47 10° N
Cosmos 1726 2.4 00:06:59 10° NNW 00:10:35 51° W 00:10:54 49° WSW
STARLINK-1188 4.0 00:08:10 10° WNW 00:11:12 44° NNE 00:14:13 10° E
GEOS 3 Rocket 3.7 00:07:39 20° SE 00:11:20 79° NE 00:16:39 10° NW
Cosmos 2058 Rocket 4.1 00:07:33 10° N 00:11:42 38° ENE 00:13:46 24° SE
STARLINK-1235 3.8 00:08:53 10° WNW 00:11:55 48° NNE 00:14:56 10° E
STARLINK-1187 3.9 00:09:18 10° WNW 00:12:19 46° NNE 00:15:19 10° E
Meteor 1-29 3.8 00:10:09 10° NNE 00:13:20 37° E 00:13:32 36° ESE
SL-27 R/B 4.2 00:10:38 10° NW 00:13:10 21° W 00:13:10 21° W
STARLINK-1144 4.1 00:09:32 10° WNW 00:13:00 42° WSW 00:13:00 42° WSW
STARLINK-1191 4.0 00:10:40 10° WNW 00:13:41 45° NNE 00:16:40 10° E
COSMOS 2455 3.4 00:11:39 33° SSE 00:13:46 45° ESE 00:19:28 10° NE
Cosmos 2228 3.0 00:10:03 10° N 00:14:20 74° E 00:15:32 45° SSE
STARLINK-1221 4.0 00:11:32 10° WNW 00:14:33 45° NNE 00:17:33 10° E
SJ 16-02 4.2 00:12:39 10° NNE 00:14:43 13° NE 00:16:46 10° ENE
STARLINK-1243 4.3 00:10:46 10° W 00:14:50 54° NNW 00:18:55 10° ENE
Cosmos 2263 4.2 00:12:25 33° SW 00:15:03 78° WNW 00:20:42 10° NNE
STARLINK-1222 4.0 00:12:26 10° WNW 00:15:26 45° NNE 00:18:26 10° E
STARLINK-1214 3.9 00:13:20 10° WNW 00:16:21 45° NNE 00:19:22 10° E
Meteor 2-15 Rocket 4.4 00:11:50 10° N 00:18:01 84° W 00:20:55 34° S
STARLINK-1103 4.3 00:14:32 10° WNW 00:17:46 38° WSW 00:17:46 38° WSW
Cosmos 1953 3.0 00:15:08 10° NNW 00:18:52 38° W 00:19:26 36° WSW
STARLINK-1236 4.4 00:15:46 10° W 00:19:50 52° NNW 00:23:55 10° ENE
Cosmos 1340 Rocket 3.2 00:16:36 10° NNW 00:20:31 49° W 00:21:08 45° SW
Cosmos 1271 Rocket 4.2 00:21:40 23° W 00:22:50 27° WNW 00:26:12 10° N
Cosmos 1174 4.4 00:23:33 32° ESE 00:23:33 32° ESE 00:26:31 10° NE
STARLINK-1101 4.4 00:19:32 10° WNW 00:22:32 34° WSW 00:22:32 34° WSW
Cosmos 1300 4.0 00:19:58 10° N 00:23:29 33° ENE 00:25:04 23° ESE
Okean 1-7 Rocket 4.4 00:22:03 31° SE 00:23:34 41° E 00:27:48 10° NNE
BREEZE M DEB (TANK) 4.1 00:26:49 18° E 00:26:49 18° E 00:27:45 10° E
COSMOS 2487 2.2 00:23:35 10° NNW 00:27:04 79° WSW 00:27:18 73° SSW
Cosmos 1992 Rocket 4.2 00:25:15 33° SW 00:27:33 66° WNW 00:32:45 10° NNE
Cosmos 1833 4.4 00:22:22 10° NW 00:27:51 52° WSW 00:29:45 36° SSW
STARLINK-1269 4.5 00:25:46 10° W 00:29:49 50° N 00:33:52 10° ENE
Cosmos 1707 4.4 00:29:05 21° W 00:30:17 25° WNW 00:33:34 10° NNW
Cosmos 1626 2.9 00:34:31 36° SE 00:35:21 42° E 00:38:54 10° NNE
STARLINK-60 4.4 00:36:27 26° ESE 00:36:27 26° ESE 00:38:21 10° ENE
Cosmos 1656 Rocket 3.7 00:33:51 31° SW 00:36:36 75° WNW 00:42:13 10° NNE
Cosmos 1606 Rocket 3.6 00:33:24 10° NNW 00:37:41 62° W 00:38:48 45° SSW
In-Cosmos 22 4.5 00:35:37 31° SW 00:37:57 53° WNW 00:43:09 10° N
FALCON 9 R/B 3.7 00:38:25 28° S 00:40:17 31° SSE 00:54:10 10° ESE
STARLINK-1211 4.5 00:38:50 10° WNW 00:42:53 51° N 00:46:57 10° E
CZ-4 R/B 4.0 00:38:40 10° N 00:43:29 63° WNW 00:45:23 35° SW
MOZ.5/SAFIR/RUBIN 5/SL-8 4.5 00:44:15 20° SE 00:47:16 50° ENE 00:51:46 10° N
Cosmos 2297 Rocket 3.7 00:42:09 10° NNW 00:47:21 36° NE 00:52:32 10° ESE
STARLINK-1245 4.4 00:43:50 10° WNW 00:47:54 52° NNE 00:51:58 10° E
Meteor 2-21 4.4 00:45:34 31° S 00:48:43 85° E 00:54:55 10° N
SL-4 R/B 2.7 00:49:12 39° S 00:50:23 48° SSE 00:54:57 10° ENE
NOSS 5 (C) 4.3 00:48:51 10° NW 00:52:01 88° SW 00:53:30 34° SE
PSLV R/B 4.0 00:47:35 10° N 00:52:07 57° WNW 00:53:53 34° SW
STARLINK-1233 4.4 00:48:49 10° WNW 00:52:54 54° NNE 00:56:58 10° E
Cosmos 1437 3.7 00:52:48 31° ESE 00:53:09 33° E 00:55:55 10° NNE
Cosmos 1674 3.4 00:53:21 35° WSW 00:54:12 41° WNW 00:57:48 10° N
SL-19 R/B 4.2 00:51:50 10° NNE 00:57:14 78° ESE 01:00:03 31° S
STARLINK-1204 4.3 00:53:49 10° WNW 00:57:54 55° NNE 01:01:59 10° E
ATLAS CENTAUR R/B 1.4 00:56:56 41° SSW 00:58:19 70° SE 01:02:26 10° NE
Cosmos 1777 Rocket 3.9 00:53:58 10° NNW 00:59:12 74° WSW 01:01:54 29° S
Timation 2 Rocket 3.9 00:53:02 10° NNW 00:59:28 88° WSW 01:04:30 16° SSE
NOSS 3-4 (A) 3.5 00:57:30 25° SW 01:01:11 79° NW 01:07:39 10° NE
BREEZE-M R/B 4.0 01:01:07 29° SSE 01:01:14 29° SSE 01:04:15 10° E
NOSS 3-4 (C) 3.5 00:57:38 25° SW 01:01:17 80° NW 01:07:45 10° NE
SL-16 R/B 2.9 00:56:01 14° SSE 01:01:25 64° ENE 01:07:31 10° N
Spot 1 4.2 01:00:54 34° S 01:02:51 71° WSW 01:07:43 10° NNW
STARLINK-1238 4.3 00:58:46 10° WNW 01:02:52 57° NNE 01:06:58 10° E
STARLINK-29 4.2 01:04:34 28° SE 01:04:34 28° SE 01:06:57 10° E
Cosmos 1455 4.4 01:02:49 10° NNE 01:05:48 22° ENE 01:08:46 10° ESE
ATLAS 3B R/B 2.7 00:59:53 10° NW 01:06:36 65° SW 01:12:42 14° SSE
STARLINK-1201 4.2 01:03:47 10° WNW 01:07:53 59° NNE 01:11:59 10° E
CENTAUR R/B 3.7 01:02:52 10° NW 01:10:16 39° WSW 01:14:47 24° SSW
BREEZE-M DEB (TANK) 1.3 01:12:38 57° SE 01:12:38 57° SE 01:14:43 10° E
STARLINK-1206 4.1 01:08:46 10° WNW 01:12:53 61° NNE 01:17:00 10° E
Cosmos 1867 4.1 01:09:56 10° NW 01:14:56 38° WSW 01:16:44 29° SSW
Meteor 2-21 Rocket 4.4 01:11:40 28° SSW 01:15:08 80° W 01:21:21 10° N
Cosmos 1892 Rocket 4.0 01:14:51 31° SW 01:16:35 49° WNW 01:20:52 10° N
Cosmos 1745 Rocket 4.1 01:12:45 24° S 01:16:37 74° E 01:22:45 10° NNE
STARLINK-1205 4.1 01:13:44 10° WNW 01:17:52 63° NNE 01:21:59 10° E
RESURS DK-1 2.4 01:19:17 36° SSW 01:20:53 72° ESE 01:25:01 10° NNE
STARLINK-1218 4.0 01:18:43 10° WNW 01:22:51 66° NNE 01:26:59 10° ESE
Cosmos 2227 Rocket 3.0 01:17:34 10° NNW 01:23:09 53° NE 01:28:41 10° SE
Cosmos 1356 Rocket 3.3 01:19:28 10° NNW 01:23:37 89° WSW 01:25:49 27° S
Meteor 1-24 Rocket 3.8 01:22:03 28° SSW 01:24:49 62° WNW 01:30:12 10° N
Cosmos 2369 Rocket 4.1 01:21:41 10° W 01:26:08 23° NW 01:30:36 10° N
CZ-2D R/B 2.4 01:21:42 10° NNE 01:26:57 62° ESE 01:30:15 22° S
Helios 1B rocket 4.1 01:23:52 10° N 01:27:11 24° WNW 01:29:11 17° WSW
STARLINK-1254 3.9 01:23:42 10° WNW 01:27:51 69° NNE 01:31:59 10° ESE
ADEOS II 3.7 01:24:56 10° NE 01:29:26 28° E 01:33:55 10° SSE
ATLAS 2AS CENTAUR R/B 3.4 01:23:17 15° WSW 01:30:10 61° NW 01:38:00 10° NE
IKONOS-2 4.5 01:29:56 23° SSE 01:32:33 86° WSW 01:36:52 10° NNW
CZ-4C R/B 3.5 01:30:46 29° S 01:32:51 67° W 01:37:11 10° NNW
STARLINK-1231 3.8 01:28:42 10° WNW 01:32:51 72° NNE 01:37:00 10° ESE
STARLINK-1228 3.1 01:31:20 10° WNW 01:34:35 49° SSW 01:37:49 10° SE
STARLINK-1234 3.0 01:32:46 10° WNW 01:35:48 48° SSW 01:37:02 29° SSE
Resurs 1-4 Rocket 2.2 01:31:25 10° NNE 01:36:44 77° ESE 01:40:11 22° S
Cosmos 1943 Rocket 4.5 01:33:37 10° WNW 01:37:06 17° NW 01:40:37 10° N
STARLINK-1212 2.7 01:34:06 10° WNW 01:37:11 62° SSW 01:40:15 10° SE
STARLINK-1105 2.7 01:34:35 10° WNW 01:37:39 61° SSW 01:40:42 10° SE
STARLINK-1232 3.8 01:33:41 10° WNW 01:37:51 75° NNE 01:42:00 10° ESE
STARLINK-1209 3.1 01:35:02 10° WNW 01:38:04 44° SSW 01:38:42 38° S
STARLINK-1247 2.8 01:35:29 10° WNW 01:38:34 60° SSW 01:41:39 10° SE
STARLINK-1227 2.8 01:35:57 10° WNW 01:39:01 60° SSW 01:42:04 10° SE
STARLINK-1226 2.8 01:36:48 10° WNW 01:39:53 59° SSW 01:42:57 10° SE
USA 81 4.3 01:36:19 19° S 01:40:07 69° E 01:45:24 10° N
STARLINK-52 3.2 01:39:41 40° SSW 01:40:26 51° SSE 01:43:34 10° ENE
STARLINK-1215 2.8 01:37:45 10° WNW 01:40:50 58° SSW 01:43:53 10° SE
ARIANE 5 R/B 4.5 01:37:33 10° NE 01:41:28 22° E 01:45:19 10° SE
Cosmos 1758 Rocket 4.5 01:39:23 16° SSE 01:42:34 42° E 01:46:43 10° NNE
STARLINK-1217 2.8 01:39:31 10° WNW 01:42:35 56° SSW 01:45:39 10° SE
STARLINK-1208 3.7 01:38:39 10° WNW 01:42:48 79° NNE 01:46:58 10° ESE
STARLINK-1229 2.8 01:40:26 10° WNW 01:43:31 55° SSW 01:46:34 10° SE
NPP 3.7 01:38:45 10° NNE 01:44:10 76° ESE 01:47:57 20° S
STARLINK-1270 2.9 01:41:18 10° WNW 01:44:22 54° SSW 01:47:26 10° SE
STARLINK-1189 2.9 01:43:08 10° WNW 01:46:13 53° SSW 01:49:15 10° SE
STARLINK-1188 2.9 01:44:02 10° WNW 01:47:05 52° SSW 01:50:08 10° SE
STARLINK-1235 3.2 01:44:46 10° WNW 01:47:43 41° SW 01:50:40 10° SE
STARLINK-1271 3.6 01:43:39 10° WNW 01:47:49 83° NNE 01:51:58 10° ESE
STARLINK-1187 3.0 01:45:10 10° WNW 01:48:10 45° SSW 01:51:09 10° SE
Cosmos 1898 Rocket 3.9 01:43:09 10° NNW 01:48:30 66° ENE 01:53:47 10° SSE
Cosmos 2058 Rocket 4.5 01:45:58 10° NW 01:49:29 24° W 01:51:01 20° WSW
STARLINK-1191 2.9 01:46:31 10° WNW 01:49:32 49° SSW 01:52:32 10° SE
Starlink 7 placeholder 2.6 01:49:43 40° NW 01:49:57 43° NNW 01:51:52 10° ENE
Lacrosse 4 Rocket 3.6 01:46:07 10° NNW 01:49:59 29° NE 01:53:45 10° ESE
STARLINK-1221 3.0 01:47:23 10° WNW 01:50:24 49° SSW 01:53:24 10° SE
Meteor 1-21 Rocket 4.4 01:46:49 18° S 01:51:01 72° E 01:56:42 10° NNE
STARLINK-1222 3.0 01:48:17 10° WNW 01:51:18 48° SSW 01:54:18 10° SE
STARLINK-1214 3.0 01:49:12 10° WNW 01:52:12 47° SSW 01:55:11 10° SE
Cosmos 1656 4.2 01:48:20 18° S 01:52:25 52° ESE 01:57:52 10° NE
STARLINK-1154 3.6 01:48:38 10° WNW 01:52:47 87° NNE 01:56:57 10° ESE
SJ 16-02 1.4 01:49:38 10° NNW 01:54:06 80° ENE 01:58:31 10° SSE
CZ-4C R/B 3.6 01:50:43 12° SSE 01:54:23 26° ESE 01:59:01 10° ENE
Cosmos 2084 3.6 01:52:18 25° SSW 01:54:51 73° SE 01:59:20 10° NE
STARLINK-1197 3.6 01:53:36 10° WNW 01:57:46 89° SSW 02:01:56 10° ESE
Cosmos 1937 Rocket 4.1 01:53:34 10° NNW 01:58:45 59° ENE 02:03:56 10° SE
Cosmos 1300 4.2 01:56:03 10° NW 01:58:56 21° W 02:00:01 18° WSW
COSMOS 2455 3.7 01:54:47 13° WSW 01:59:46 43° NW 02:05:32 10° NNE
Meteor 2-10 Rocket 3.5 01:55:44 10° NNW 02:01:08 82° W 02:06:00 11° S
STARLINK-1198 3.5 01:58:33 10° WNW 02:02:43 85° SSW 02:06:52 10° ESE
Cosmos 921 Rocket 3.7 02:00:21 21° SW 02:02:50 41° WNW 02:06:58 10° N
Cosmos 1709 Rocket 3.9 02:01:48 16° S 02:06:45 86° WNW 02:12:55 10° N
STARLINK-1199 3.5 02:03:34 10° WNW 02:07:44 80° SSW 02:11:53 10° ESE
Cosmos 1626 Rocket 4.3 02:06:42 20° SW 02:09:12 39° WNW 02:13:18 10° N
STARLINK-1269 4.5 02:05:47 10° WNW 02:09:51 53° NNE 02:13:56 10° E
Cosmos 1626 4.2 02:09:03 13° W 02:10:50 17° WNW 02:13:18 10° NNW
STARLINK-60 3.5 02:08:52 14° W 02:11:28 56° NNW 02:14:39 10° ENE
STARLINK-1210 3.5 02:08:32 10° WNW 02:12:42 76° SSW 02:16:50 10° ESE
STARLINK-1200 4.4 02:10:47 10° WNW 02:14:52 55° NNE 02:18:57 10° E
Cosmos 2219 3.4 02:10:34 10° NW 02:16:01 49° WSW 02:21:25 10° S
STARLINK-1320 3.7 02:14:52 23° SSW 02:16:17 36° SE 02:19:11 10° ENE
STARLINK-1322 3.7 02:15:11 23° SSW 02:16:38 36° SE 02:19:32 10° ENE
STARLINK-1324 3.7 02:15:32 23° SSW 02:16:59 37° SE 02:19:53 10° ENE
STARLINK-1294 3.7 02:15:47 22° SSW 02:17:15 37° SE 02:20:11 10° ENE
STARLINK-1261 3.7 02:16:09 22° SSW 02:17:37 37° SE 02:20:33 10° ENE
STARLINK-1219 3.5 02:13:31 10° WNW 02:17:40 71° SSW 02:21:47 10° SE
STARLINK-1325 3.7 02:16:30 22° SSW 02:18:00 37° SE 02:20:55 10° ENE
STARLINK-1333 3.7 02:16:48 22° SSW 02:18:18 37° SE 02:21:13 10° ENE
STARLINK-1334 3.7 02:17:07 22° SSW 02:18:37 38° SE 02:21:34 10° ENE
STARLINK-1326 3.6 02:17:28 22° SSW 02:18:59 38° SE 02:21:55 10° ENE
STARLINK-1323 3.6 02:17:47 22° SSW 02:19:19 38° SE 02:22:15 10° ENE
STARLINK-1338 3.9 02:17:39 20° SSW 02:19:33 38° SE 02:22:48 10° ENE
STARLINK-1349 3.6 02:18:06 22° SSW 02:19:38 38° SE 02:22:35 10° ENE
Cosmos 1980 Rocket 3.8 02:15:13 10° SSE 02:19:50 27° ESE 02:24:29 10° NE
STARLINK-1192 4.3 02:15:47 10° WNW 02:19:52 56° NNE 02:23:58 10° E
STARLINK-1336 3.6 02:18:28 22° SSW 02:20:00 39° SE 02:22:57 10° ENE
STARLINK-1331 3.6 02:18:45 22° SSW 02:20:19 39° SE 02:23:15 10° ENE
STARLINK-1344 3.6 02:19:05 22° SSW 02:20:39 39° SE 02:23:36 10° ENE
STARLINK-1343 3.6 02:19:25 22° SSW 02:21:00 39° SE 02:23:57 10° ENE
STARLINK-1346 3.6 02:19:43 22° SSW 02:21:21 40° SE 02:24:20 10° ENE
STARLINK-1328 3.6 02:20:05 22° SSW 02:21:41 40° SE 02:24:39 10° ENE
STARLINK-1354 3.6 02:20:22 21° SSW 02:22:00 40° SE 02:24:57 10° ENE
STARLINK-1347 3.6 02:20:44 21° SSW 02:22:22 40° SE 02:25:19 10° ENE
STARLINK-1211 3.5 02:18:30 10° WNW 02:22:37 67° SSW 02:26:44 10° SE
STARLINK-1357 3.5 02:21:01 21° SSW 02:22:40 40° SE 02:25:38 10° ENE
Cosmos 1328 3.9 02:19:19 14° S 02:22:41 79° E 02:26:42 10° NNE
STARLINK-1335 3.5 02:21:22 21° SSW 02:23:01 41° SE 02:25:59 10° ENE
STARLINK-1327 3.5 02:21:41 21° SSW 02:23:21 41° SE 02:26:19 10° ENE
STARLINK-1371 3.8 02:21:31 20° SSW 02:23:34 41° SE 02:26:52 10° ENE
STARLINK-1340 3.5 02:22:01 21° SSW 02:23:42 41° SE 02:26:41 10° ENE
STARLINK-1356 3.5 02:22:21 21° SSW 02:24:02 42° SSE 02:27:01 10° ENE
STARLINK-1345 3.5 02:22:41 21° SSW 02:24:22 42° SSE 02:27:21 10° ENE
Cosmos 192 4.5 02:20:35 17° SW 02:24:23 67° WNW 02:29:21 10° NNE
STARLINK-1355 3.5 02:22:59 21° SSW 02:24:42 42° SSE 02:27:41 10° ENE
STARLINK-1244 4.3 02:20:45 10° WNW 02:24:51 58° NNE 02:28:57 10° E
STARLINK-1321 3.5 02:23:18 21° SSW 02:25:02 42° SSE 02:28:01 10° ENE
ERS-2 2.9 02:21:36 10° SSE 02:25:11 54° ENE 02:28:47 10° N
STARLINK-1358 3.5 02:23:39 21° SSW 02:25:23 43° SSE 02:28:22 10° ENE
STARLINK-1341 3.8 02:23:29 19° SSW 02:25:36 42° SE 02:28:56 10° ENE
STARLINK-1332 3.5 02:23:57 21° SSW 02:25:42 43° SSE 02:28:41 10° ENE
STARLINK-1348 3.4 02:24:18 20° SSW 02:26:04 43° SSE 02:29:03 10° ENE
STARLINK-1330 3.4 02:24:36 20° SSW 02:26:22 43° SSE 02:29:22 10° ENE
STARLINK-1363 3.4 02:24:56 20° SSW 02:26:43 44° SE 02:29:42 10° ENE
STARLINK-1337 3.4 02:25:15 20° SSW 02:27:03 44° SSE 02:30:03 10° ENE
STARLINK-1342 3.4 02:25:35 20° SSW 02:27:24 44° SE 02:30:24 10° ENE
STARLINK-1245 3.6 02:23:30 10° WNW 02:27:37 63° SSW 02:31:42 10° SE
STARLINK-1374 3.8 02:25:26 19° SSW 02:27:38 44° SE 02:31:00 10° ENE
STARLINK-1364 3.4 02:25:55 20° SSW 02:27:44 44° SSE 02:30:45 10° ENE
IRS-1C 4.4 02:22:33 10° NNE 02:27:55 70° ESE 02:33:14 10° S
STARLINK-1376 3.4 02:26:15 20° SSW 02:28:05 45° SSE 02:31:06 10° ENE
STARLINK-1360 3.4 02:26:30 20° SSW 02:28:21 45° SSE 02:31:22 10° ENE
AQUA 4.1 02:23:42 10° N 02:28:21 54° WNW 02:32:11 15° SW
STARLINK-1361 3.4 02:26:56 20° SSW 02:28:47 45° SSE 02:31:48 10° ENE
STARLINK-1367 3.4 02:27:10 20° SSW 02:29:03 46° SSE 02:32:07 10° ENE
STARLINK-1366 3.4 02:27:33 20° SSW 02:29:26 46° SSE 02:32:27 10° ENE
STARLINK-1339 3.7 02:27:27 18° SSW 02:29:43 45° SE 02:33:05 10° ENE
STARLINK-1138 4.2 02:25:44 10° WNW 02:29:50 60° NNE 02:33:57 10° E
SL-4 R/B 2.6 02:25:15 10° W 02:30:04 73° NNW 02:34:43 10° ENE
CZ-4B R/B 3.9 02:25:53 10° N 02:30:51 52° WNW 02:35:13 14° SW
Cosmos 2297 Rocket 2.5 02:26:10 10° NW 02:31:33 46° WSW 02:36:54 10° S
STARLINK-1377 3.7 02:29:28 18° SW 02:31:49 47° SE 02:35:12 10° ENE
STARLINK-1233 3.6 02:28:29 10° WNW 02:32:33 58° SSW 02:36:38 10° SE
STARLINK-1203 4.2 02:28:32 10° WNW 02:32:43 62° NNE 02:36:54 10° E
STARLINK-1353 3.6 02:31:17 17° SW 02:33:40 48° SSE 02:37:02 10° ENE
STARLINK-1143 4.2 02:30:43 10° WNW 02:34:50 62° NNE 02:38:58 10° E
Cosmos 2082 3.7 02:29:40 10° NNW 02:35:22 80° WSW 02:41:00 10° SSE
STARLINK-1375 3.6 02:33:04 17° SW 02:35:32 50° SSE 02:38:54 10° ENE
Cosmos 990 Rocket 4.2 02:32:19 10° NNW 02:37:24 51° WSW 02:42:27 10° S
STARLINK-1204 3.7 02:33:29 10° WNW 02:37:33 54° SSW 02:41:35 10° SE
ATLAS CENTAUR R/B 3.3 02:34:08 10° W 02:37:35 23° NW 02:40:51 10° NNE
CBERS-1 4.1 02:32:40 10° N 02:37:45 65° WNW 02:42:28 12° SSW
Cosmos 540 Rocket 4.2 02:32:57 10° S 02:37:53 49° ESE 02:42:50 10° NNE
STARLINK-1350 3.5 02:35:22 16° SW 02:37:54 52° SSE 02:41:19 10° ENE
FALCON 9 DEB 3.1 02:35:24 14° WSW 02:38:21 85° NNW 02:41:50 10° ENE
STARLINK-1241 4.1 02:35:42 10° WNW 02:39:49 65° NNE 02:43:57 10° E
STARLINK-29 3.4 02:36:59 10° W 02:40:06 60° NNW 02:43:17 10° ENE
STARLINK-1352 3.5 02:37:39 16° SW 02:40:20 54° SSE 02:43:47 10° ENE
Cosmos 1455 3.1 02:38:09 10° NNW 02:41:28 30° W 02:44:16 13° SSW
Cosmos 1825 Rocket 3.7 02:38:21 13° SSW 02:42:07 57° WNW 02:46:24 10° N
CZ-2D R/B 4.4 02:38:16 10° NNE 02:42:14 46° E 02:46:17 10° S
Cosmos 2278 4.5 02:36:53 10° S 02:42:15 47° ESE 02:47:41 10° NE
STARLINK-1238 3.7 02:38:27 10° WNW 02:42:29 51° SW 02:46:29 10° SE
STARLINK-1368 3.4 02:39:45 15° SW 02:42:30 56° SSE 02:45:58 10° ENE
STARLINK-1369 3.4 02:41:37 15° SW 02:44:24 58° SSE 02:47:51 10° ENE
Meteor 1-11 4.4 02:39:00 10° S 02:44:37 77° E 02:50:14 10° NNE
STARLINK-1239 4.0 02:40:40 10° WNW 02:44:49 68° NNE 02:48:57 10° ESE
Meteor 1-28 Rocket 3.2 02:41:12 10° SSE 02:44:59 86° ENE 02:48:47 10° NNW
SL-16 R/B 3.6 02:41:07 12° SW 02:45:30 25° W 02:50:31 10° NW
ATLAS CENTAUR R/B 2.9 02:42:58 10° WNW 02:46:01 33° SW 02:52:22 10° SSE
STARLINK-1372 3.4 02:43:57 14° SW 02:46:53 61° SSE 02:50:22 10° ENE
Cosmos 2263 Rocket 3.9 02:41:56 10° NNW 02:47:12 38° NE 02:52:23 10° ESE
STARLINK-1201 3.8 02:43:28 10° WNW 02:47:27 47° SW 02:51:26 10° SE
Cosmos 2074 Rocket 4.2 02:41:47 10° S 02:48:04 81° E 02:54:24 10° N
STARLINK-1378 3.3 02:46:05 13° SW 02:49:06 63° SSE 02:52:36 10° ENE
Cosmos 372 Rocket 4.3 02:43:59 10° NNW 02:49:07 70° ENE 02:54:15 10° SSE
STARLINK-1329 3.3 02:46:35 13° SW 02:49:37 63° SSE 02:53:08 10° ENE
GP-B 3.9 02:45:38 10° NNW 02:49:42 36° W 02:53:37 11° SW
STARLINK-1240 3.9 02:45:40 10° WNW 02:49:49 71° NNE 02:53:57 10° ESE
Cosmos 841 Rocket 3.8 02:44:56 10° S 02:50:08 67° ESE 02:55:21 10° NNE
STARLINK-1365 3.3 02:47:17 13° SW 02:50:21 66° SSE 02:53:51 10° ENE
IRS-1D 4.0 02:45:25 10° N 02:50:38 53° WNW 02:55:44 10° SW
STARLINK-1379 3.3 02:48:13 13° SW 02:51:18 65° SSE 02:54:50 10° ENE
STARLINK-1362 3.3 02:48:47 13° SW 02:51:55 66° SSE 02:55:26 10° ENE
STARLINK-1206 3.9 02:48:27 10° WNW 02:52:25 44° SW 02:56:21 10° SE
Cosmos-2242 3.7 02:49:07 10° NNW 02:53:03 36° W 02:56:56 10° SSW
STARLINK-1373 3.3 02:50:59 12° SW 02:54:12 68° SSE 02:57:44 10° ENE
Cosmos 1400 Rocket 2.8 02:50:12 10° NNW 02:54:19 75° W 02:58:26 10° S
STARLINK-1216 3.9 02:50:38 10° WNW 02:54:48 74° NNE 02:58:56 10° ESE
COBE Rocket 3.9 02:50:08 10° S 02:55:03 77° WSW 03:00:09 10° NNW
Cosmos 2221 3.3 02:50:50 10° N 02:55:06 54° ENE 02:59:21 10° SSE
ATLAS 3B R/B 4.3 02:52:48 10° WNW 02:56:06 14° WSW 02:59:27 10° SW
STARLINK-1390 3.2 02:52:59 12° SW 02:56:15 70° SSE 02:59:47 10° ENE
NOSS 7 (E) 4.5 02:53:04 11° SSW 02:56:27 67° SE 02:59:32 10° NE
STARLINK-1205 4.0 02:53:27 10° WNW 02:57:22 41° SW 03:01:16 10° SSE
RESURS DK-1 4.5 02:56:31 10° W 02:59:24 18° NW 03:02:17 10° N
Cosmos 2184 Rocket 4.0 02:53:24 10° S 02:59:36 88° W 03:05:48 10° N
STARLINK-1237 3.8 02:55:38 10° WNW 02:59:47 77° NNE 03:03:56 10° ESE
SL-08 R/B 3.6 02:56:05 10° S 03:00:36 47° W 03:05:07 10° NNW
CZ-4C R/B 3.2 02:57:22 10° SSE 03:00:57 83° ENE 03:04:36 10° NNW
STARLINK-1218 4.1 02:58:27 10° WNW 03:02:18 38° SW 03:06:09 10° SSE
STARLINK-1202 3.8 03:00:37 10° WNW 03:04:47 81° NNE 03:08:56 10° ESE
Cosmos 1703 4.3 03:02:14 10° SW 03:05:49 32° WNW 03:09:25 10° N
IRS-P3 4.4 03:01:02 10° N 03:06:14 54° WNW 03:11:24 10° SW
CZ-2D R/B 3.6 03:02:31 10° N 03:06:35 23° WNW 03:10:37 10° WSW
Cosmos 2227 Rocket 3.1 03:02:06 10° NW 03:06:56 29° WSW 03:11:44 10° SSW
STARLINK-1254 4.2 03:03:28 10° WNW 03:07:16 35° SW 03:11:03 10° SSE
Cosmos 1763 Rocket 3.9 03:04:00 10° SW 03:08:59 51° WNW 03:13:57 10° NNE
ADEOS II 2.6 03:04:19 10° N 03:09:20 47° WNW 03:14:21 10° SW
Cosmos 1697 Rocket 2.8 03:05:23 10° SSW 03:11:03 75° WNW 03:16:46 10° NNE
Cosmos 2150 Rocket 4.1 03:05:55 10° NNW 03:11:10 82° ENE 03:16:19 10° SSE
STARLINK-1231 4.3 03:08:30 10° WNW 03:12:15 33° SW 03:15:57 10° SSE
Cosmos 1315 Rocket 3.2 03:10:27 10° N 03:14:22 67° ENE 03:18:15 10° SSE
STARLINK-1246 3.7 03:10:34 10° WNW 03:14:44 89° NNE 03:18:53 10° ESE
Resurs 1-4 Rocket 3.8 03:12:17 10° NNW 03:15:59 20° WNW 03:19:42 10° WSW
